Location: *
(51.5000°N, 0.1100°W)
Time: 13:33:30
(UTC+00:00)

IDEFIX/ARIANE 42P - Pass Details

Date: 09 August 2024
Orbit: 782 x 799 km, 98.5° (Epoch: 15 September)

Event Time Altitude Azimuth Distance (km) Brightness Sun altitude
Rises 01:28:39 0° 18° (NNE) 3,284 7.4 -20.4°
Reaches altitude 10° 01:31:02 10° 23° (NNE) 2,352 6.2 -20.2°
Maximum altitude 01:36:06 53° 100° (E) 962 3.0 -19.9°
Enters shadow 01:38:27 30° 162° (SSE) 1,382 3.4 -19.8°
